Location: Gleizolles
(44.4833°N, 6.7667°E)
Time: 21:45:03
(UTC+00:00)

MINOTAUR IV R/B - Pass Details

Date: 09 April 2020
Orbit: 618 x 646 km, 72.0° (Epoch: 14 May)

Event Time Altitude Azimuth Distance (km) Brightness Sun altitude
Rises 19:29:17 0° 196° (SSW) 2,878 7.9 -14.0°
Reaches altitude 10° 19:31:32 10° 195° (SSW) 1,976 7.0 -14.4°
Maximum altitude 19:35:56 71° 112° (ESE) 656 4.4 -15.1°
Drops below altitude 10° 19:40:23 10° 28° (NNE) 1,996 7.2 -15.8°
Sets 19:42:40 0° 26° (NNE) 2,909 8.1 -16.1°
